User: anonymous   Login
Location: Caltech
(34.1382°N, 118.1253°W)
Time: 15:20:00
(UTC-07:00)
Language:

NOAA 19 - Orbit

View from above orbital plane
View from above orbital plane
View from above satellite
View from above satellite

Ground track
Ground track

The orbit data is extracted from the following two-line orbital elements,

1 33591U 09005A   16270.83679115  .00000262  00000-0  14291-3 0  9991
2 33591  99.0506 228.4984 0013238 295.6014  64.4264 14.12110925393976
Epoch (UTC): 26 September 2016 20:04:58
Eccentricity: 0.0013238
inclination: 99.0506°
perigee height: 842 km
apogee height: 862 km
right ascension of ascending node: 228.4984°
argument of perigee: 295.6014°
revolutions per day: 14.12110925
mean anomaly at epoch: 64.4264°
orbit number at epoch: 39397

The dashed part of the orbit path shows where the satellite is in the earth's shadow,  

DLR